STARLINK-34369

Last updated on Thu Jul 03 2025 00:02:06 GMT+0000 (Coordinated Universal Time)

1 64297U 25123G 25183.58335648 .00057402 00000+0 93034-3 0 9991 2 64297 69.9998 120.1008 0003410 269.8234 307.7954 15.52479481 4920
UTC large
Height (km)
Speed (km/s)
/
Latitude / Longitude
Inclination (degrees)
Orbital Period (minutes)
Azimuth
Elevation
Range (km)
Doppler Factor

Next 0 passes for location: London (51.5072 / 0.1276)

Sorry there are no passes over London.